STARLINK-6327, 56522

Orbit data source: Space-Track

STARLINK-6327, 56522 is a payload satellite owned by SpaceX/Seattle (US) in LEO that was launched on Sun, 14 May 2023 UTC via an FALCON 9 launch vehicle from the Air Force Eastern Test Range (AFETR). Payload-class satellites include a variety of spacecraft equipped with specific instruments for various scientific and technological missions. These include communications satellites like Starlink; space stations such as the ISS; scientific satellites like the Hubble; Earth observation satellites from companies like Planet Labs, Umbra, and HawkEye 360; GPS; miniature CubeSats for education and research; and military/defense satellites.

Loading next visibility...
Identifier
56522, 2023-065V
Orbit
LEO
Country
Flag of USUS
Related business
Manufacturer
SpaceX/Seattle
Mission
Operational Commercial Communications
Bus & Motor
STARLINK, Unknown motor
Mass
305 kg wet, ~290 kg dry
Launch date (UTC)
2023-05-14 (3 years ago)
Launch vehicle
FALCON 9
Launch site
Air Force Eastern Test Range (AFETR)
Object type
Payload
Rocket body
Debris
Shape & HBR
Box + 1 Pan, 10.1 m
Radar Cross Section
11.087 m², Large (>1 m²)

Expand to show TLE details & history
Last TLE update: 3 days ago

TLE from 3 days ago
0 STARLINK-6327
1 56522U 23065V   26170.53210938  .00000758  00000-0  37064-4 0  9997
2 56522  43.0008 357.4520 0001453 269.6181  90.4505 15.27579559172175
Epoch: 2026-06-19T12:46Z
TLE epoch observation values (Epoch: 2026-06-19T12:46:14.250Z)
Latitude
0.00004°
Longitude
-101.86707°
Altitude
482.834 km
Speed
7.626 km/s
True Right ascension
23h 49m 48s
True Declination
0° 00' 00"
Sunlit
Object was in daylight at epoch
Visualization orbit readout
Latitude
Unknown
Longitude
Unknown
Altitude
Unknown
Speed
Unknown
Apparent Right ascension
Unknown
Apparent Declination
Unknown
Sunlit
N/A
Visualization observer readout
Local Sidereal Time
21:24:28
Azimuth
Unknown
Elevation
Unknown
Doppler factor
Unknown
Orbital elements
Apogee altitude
485.993 km
Perigee altitude
483.998 km
Semi-major axis
6,863.132 km
Eccentricity
0.00015
Inclination
43.0008°
RAAN
357.452°
Arg. of periapsis
269.6181°
True anomaly
90.46715°
Mean anomaly
90.4505°
Eccentric anomaly
90.45882°
Mean motion
3.81733 °/min
Orbital period
94.31 mins
BSTAR
0.000037064
Loading maneuver chart data...
Computing Atmospheric mass density...
Loading historical data...
Loading historical data...
Loading historical data...
Loading historical data...
Loading historical data...
Loading historical data...
Loading historical data...

Documentation

Showing up to 5 results
|